Location: ??
(35.5052°N, 139.7262°E)
Time: 01:45:56
(UTC+00:00)

Cosmos 1633 - Pass Details

Date: 20 June 2021
Orbit: 461 x 476 km, 82.5° (Epoch: 26 July)

Event Time Altitude Azimuth Distance (km) Brightness Sun altitude
Exits shadow 16:33:30 29° 342° (NNW) 880 4.2 -25.5°
Drops below altitude 10° 16:35:26 10° 356° (N) 1,617 5.9 -25.3°
Sets 16:37:34 0° 2° (N) 2,498 7.2 -25.1°
